Location: LC-39B
(28.6273°N, 80.6211°W)
Time: 01:38:19
(UTC+00:00)

ISS - Visible Passes

Search period start: 24 April 2017 00:00
Search period end: 04 May 2017 00:00
Orbit: 400 x 409 km, 51.6° (Epoch: 24 April)

Date Brightness Start Highest point End Pass type
(mag) Time Alt. Az. Time Alt. Az. Time Alt. Az.
29 Apr -0.8 10:08:22 10° SE 10:09:20 11° SE 10:10:18 10° ESE visible
01 May -2.3 09:57:56 10° SSW 10:00:54 33° SE 10:03:52 10° ENE visible
02 May -1.3 09:07:22 12° SSE 09:08:42 15° SE 09:10:36 10° E visible
03 May -3.8 09:50:09 17° SW 09:52:32 69° NW 09:55:48 10° NE visible
